Regional Weather Roundup
Issued by NWS

Home | Current Version | Previous Version | Text Only | Print | Product List | Glossary On
Versions: 1 2 3 4 5 6 7 8 9 10 11 12 13 14 15 16 17 18 19 20 21 22 23 24 25 26
000
ASUS46 KSEW 250510
RWRWA

WASHINGTON REGIONAL WEATHER ROUNDUP
NATIONAL WEATHER SERVICE SEATTLE WA
1000 PM PDT TUE MAY 24 2016

NOTE:"FAIR" INDICATES FEW OR NO CLOUDS BELOW 12,000 FEET WITH NO
SIGNIFICANT WEATHER AND/OR OBSTRUCTIONS TO VISIBILITY.

WAZ505-507>509-250600-
SEATTLE, TACOMA, EVERETT, AND VICINITY

CITY           SKY/WX    TMP DP  RH WIND       PRES   REMARKS
EVERETT        CLOUDY    55  48  77 N7        30.03R
BOEING FIELD   CLOUDY    60  52  74 VRB3      30.02R
RENTON         CLOUDY    62  52  69 CALM      30.01R
SEATAC AIRPORT MOCLDY    59  50  72 W5        30.03R
JBLM-MCCHORD   CLOUDY    59  51  73 VRB6      30.03R
PUYALLUP       CLOUDY    59  52  77 CALM      30.03R
BREMERTON      CLOUDY    57  52  82 CALM      30.05R
JBLM-FT LEWIS  CLOUDY    58  51  75 W8        30.02R
TACOMA NARROWS CLOUDY    58  49  72 W5        30.04R
$$

WAZ001-503-506-510-514-515-250600-
NORTH INTERIOR

CITY           SKY/WX    TMP DP  RH WIND       PRES   REMARKS
BELLINGHAM     CLOUDY    59  50  72 S6        30.01R
FRIDAY HARBOR  CLEAR     48  46  93 CALM      30.02R
EASTSOUND      CLEAR     57  50  77 S7        29.99R
PORT ANGELES   CLEAR     52  47  83 W10       30.04R
EDIZ HOOK      FAIR      53  48  83 W14       30.04R
PORT TOWNSEND  FAIR      54  48  82 CALM      30.04R
NAS WHIDBEY    MOCLDY    54  49  83 SW3       30.06R
ARLINGTON      CLOUDY    55  45  67 NW7       30.04R
BURLINGTON     CLOUDY    55  50  82 CALM      30.03R
$$

WAZ020-022-039-040-504-511-512-250600-
SOUTHWEST INTERIOR

CITY           SKY/WX    TMP DP  RH WIND       PRES   REMARKS
SHELTON        CLOUDY    56  48  74 SW9       30.01R
OLYMPIA        CLEAR     55  47  74 CALM      30.03R
CHEHALIS       CLOUDY    59  50  72 CALM      30.04R
KELSO          CLOUDY    57  45  62 W5        30.08R
VANCOUVER      CLOUDY    60  48  64 NW8G16    30.01R
SCAPPOOSE, OR  CLEAR     57  46  66 NE5       30.02R
PORTLAND, OR   PTCLDY    61  48  62 NW9       30.02R
$$

WAZ021-516-517-250600-
WASHINGTON COAST

CITY           SKY/WX    TMP DP  RH WIND       PRES   REMARKS
FORKS          CLEAR     50  47  89 CALM      30.06R
HOQUIAM        CLEAR     54  51  90 W5        30.06R
ASTORIA, OR    CLOUDY    55  50  83 W3        30.06R
$$

WAZ019-023-024-040-518-519-250600-
CASCADE MOUNTAINS AND COLUMBIA GORGE

CITY           SKY/WX    TMP DP  RH WIND       PRES   REMARKS
STAMPEDE PASS  CLOUDY    44  42  93 VRB5      30.03R
TROUTDALE, OR  CLEAR     62  47  57 VRB3      30.01R
THE DALLES, OR CLEAR     63  44  50 W10       29.94R
$$

WAZ026-027-041>044-520-521-250600-
EAST SLOPES

CITY           SKY/WX    TMP DP  RH WIND       PRES   REMARKS
OMAK           PTCLDY    57  47  69 W5        29.88R
WENATCHEE      CLEAR     62  42  47 NW15      29.91R
ELLENSBURG     CLEAR     57  43  59 NW20G26   29.93R
YAKIMA         CLEAR     63  42  46 NW9       29.92R
$$

WAZ028-034-035-250600-
COLUMBIA BASIN

CITY           SKY/WX    TMP DP  RH WIND       PRES   REMARKS
EPHRATA        CLEAR     63  46  54 SW5       29.88R
MOSES LAKE     CLEAR     63  47  55 S6        29.89R
PASCO          CLEAR     67  46  47 S6        29.87R
HERMISTON, OR  CLEAR     61  45  55 SW9       29.89R
$$

WAZ036>038-250600-
NORTHEAST WASHINGTON

CITY           SKY/WX    TMP DP  RH WIND       PRES   REMARKS
SPOKANE GEIGER MOCLDY    56  48  74 S6        29.92R
SPOKANE FELTS  CLEAR     54  48  80 CALM      29.93R
FAIRCHILD AFB  CLOUDY    55  50  82 E2        29.92R
COEURDALENE,ID PTCLDY    55  48  76 SE6       29.91R
DEER PARK      PTCLDY    50  46  86 CALM      29.93R
$$

WAZ029>033-250600-
SOUTHEAST WASHINGTON

CITY           SKY/WX    TMP DP  RH WIND       PRES   REMARKS
PULLMAN        CLEAR     52  46  80 CALM      29.95R
LEWISTON, ID   MOCLDY    57  47  69 SE7       29.92R
WALLA WALLA    CLEAR     56  47  71 E9        29.89R
PENDLETON, OR  CLEAR     56  42  59 W9        29.91R
$$




USA.gov is the U.S. government's official web portal to all federal, state and local government web resources and services.